Buscar
  • Menú Principal
  • Est. Meteorològica
  • Mareògraf
  • Previsió
Les dades presentades són DEUMINUTALS

Data últim calibratge: ** PENDENT **

Estat: Darrera lectura: 22/10 21:50 Hora local
Velocitat del vent: 3,5 Km/h Ratxa màxima: 5,7 km/h
V.vent (nusos): 1,9 Nudos Dir. procedència: ONO (287º)
Temp. De l'aire: 18 ºC Hum. rel.: 87,5 %
         
Rosa de vent (últimes 24 h i 7 dies previs a 22/10 21:50 Hora local )
Rosa 24 Horas Rosa 7 Días
Últimes 24 hores Últims 7 dies
Descripció de l'estació:
         
Posició de l'estació
Imagen estacion
TOTES LES DADES ESTAN EN HORA LOCAL
Data
Vel. vent. (Km/h)
Dir. vent (º)
Max. vent. (Km/h):
Temp. aire (º C)
Hum. relativa (%)
2020/10/22 21:503,52875,71887,5
2020/10/22 21:401,72635,61887,6
2020/10/22 21:301,03083,81887,8
2020/10/22 21:201,32873,61888,2
2020/10/22 21:102,52827,51888,5
2020/10/22 21:003,71658,91889,0
2020/10/22 20:502,62286,11989,4
2020/10/22 20:401,82734,41989,5
2020/10/22 20:301,52554,91989,7
2020/10/22 20:201,93595,31989,6
2020/10/22 20:102,2636,81989,7
2020/10/22 20:001,93227,21989,6
2020/10/22 19:504,33219,41989,3
2020/10/22 19:404,22867,91989,0
2020/10/22 19:302,52547,32089,0
2020/10/22 19:202,3536,42089,0
2020/10/22 19:103,43057,52088,8
2020/10/22 19:004,119,42088,5
2020/10/22 18:505,84710,82088,2
2020/10/22 18:405,56812,82087,7
2020/10/22 18:305,46913,62087,1
2020/10/22 18:206,23110,82086,3
2020/10/22 18:107,37913,12085,5
2020/10/22 18:0013,713117,82084,7
Página 1 de 29 (696 Datos)< Prev1234567272829Next >
TOTES LES DADES ESTAN EN HORA LOCAL
Data
Vel. vent. (Km/h)
Dir. vent (º)
Max. vent. (Km/h):
Temp. aire (º C)
Hum. relativa (%)
2020/10/22 21:002,32875,81888,1
2020/10/22 20:002,02285,81989,6
2020/10/22 19:003,53218,02088,9
2020/10/22 18:007,34713,22086,6
2020/10/22 17:006,713610,92178,1
2020/10/22 16:004,732710,52275,7
2020/10/22 15:0010,39219,72272,1
2020/10/22 14:006,834313,82268,0
2020/10/22 13:004,035510,52172,0
2020/10/22 12:004,929611,72169,6
2020/10/22 11:006,634215,62174,4
2020/10/22 10:005,07611,32080,4
2020/10/22 09:003,238,91984,5
2020/10/22 08:004,626511,12080,6
2020/10/22 07:008,335920,42082,7
2020/10/22 06:006,51215,11986,4
2020/10/22 05:003,4219,71986,3
2020/10/22 04:003,03569,11987,0
2020/10/22 03:003,226110,51888,7
2020/10/22 02:002,63308,11889,8
2020/10/22 01:004,726511,91989,7
2020/10/22 00:007,11815,41988,6
2020/10/21 23:004,0378,71987,5
2020/10/21 22:004,7249,82086,3
Página 1 de 5 (116 Datos)< Prev12345Next >
TOTES LES DADES ESTAN EN HORA LOCAL
Data
Vel. vent. (Km/h)
Dir. vent (º)
Max. vent. (Km/h):
Temp. aire (º C)
Hum. relativa (%)
2020/10/22 00:004,928711,52081,5
2020/10/21 00:008,426518,12084,2
2020/10/20 00:0015,54827,62081,9
2020/10/19 00:0012,015920,31777,7
2020/10/18 00:006,126310,11568,8
TOTES LES DADES ESTAN EN HORA LOCAL
Les dades presentades són DEUMINUTALS
48 Hores
24 Hores
12 Hores
6 Hores
3 Hores

The Velocitat del vent (km/h) chart showing Velocitat del vent (km/h) series.

The Direcció vent (º) chart showing Direcció vent (º) series.


The Temperatura (º) chart showing Temperatura (º) series.